This is the latest recevied weather packets stored in our database for station/object KD8BMB. If no packets are shown the sender has not sent any weather packets the latest 1 day(s).
| Time | Temp. | Humidity | Pressure | Rain* | Wind** | Luminosity | Snow |
|---|---|---|---|---|---|---|---|
| 1777965979 | 15.56° C | 82% | 998.5 hPa | 0 mm | 1.79 m/s, 189° | 0 W/m² | - |
| 1777965676 | 15.56° C | 82% | 998.6 hPa | 0 mm | 0 m/s | 0 W/m² | - |
| 1777965371 | 15.56° C | 82% | 998.7 hPa | 0 mm | 0.89 m/s, 254° | 0 W/m² | - |
| 1777965069 | 15.56° C | 81% | 998.4 hPa | 0 mm | 0.89 m/s, 200° | 0 W/m² | - |
| 1777964766 | 15.56° C | 81% | 998.3 hPa | 0 mm | 1.34 m/s, 206° | 0 W/m² | - |
| 1777964463 | 15.56° C | 81% | 998.5 hPa | 0 mm | 0 m/s | 0 W/m² | - |
| 1777964158 | 15.56° C | 80% | 998.6 hPa | 0 mm | 1.79 m/s, 198° | 0 W/m² | - |
| 1777963855 | 15.56° C | 80% | 998.6 hPa | 0 mm | 0.45 m/s, 293° | 0 W/m² | - |
| 1777963552 | 16.11° C | 80% | 998.6 hPa | 0 mm | 0.45 m/s, 229° | 0 W/m² | - |
| 1777963251 | 16.11° C | 80% | 998.5 hPa | 0 mm | 0.89 m/s, 214° | 0 W/m² | - |
| 1777962948 | 16.11° C | 80% | 998.7 hPa | 0 mm | 1.34 m/s, 258° | 0 W/m² | - |
| 1777962643 | 16.11° C | 81% | 998.8 hPa | 0 mm | 1.34 m/s, 300° | 0 W/m² | - |
| 1777962340 | 16.11° C | 80% | 998.7 hPa | 0 mm | 0.89 m/s, 274° | 0 W/m² | - |
| 1777962037 | 16.67° C | 79% | 998.6 hPa | 0 mm | 0.89 m/s, 197° | 0 W/m² | - |
| 1777961735 | 16.67° C | 78% | 998.6 hPa | 0 mm | 0.45 m/s, 137° | 0 W/m² | - |
| 1777961433 | 16.67° C | 78% | 998.6 hPa | 0 mm | 0.89 m/s, 212° | 0 W/m² | - |
| 1777961130 | 16.67° C | 77% | 998.8 hPa | 0 mm | 0.89 m/s, 206° | 0 W/m² | - |
| 1777960826 | 16.67° C | 77% | 998.9 hPa | 0 mm | 1.34 m/s, 218° | 0 W/m² | - |
| 1777960522 | 17.22° C | 76% | 998.7 hPa | 0 mm | 0.45 m/s, 308° | 0 W/m² | - |
| 1777960218 | 17.22° C | 77% | 998.7 hPa | 0 mm | 0 m/s | 0 W/m² | - |
| 1777959916 | 17.22° C | 77% | 998.7 hPa | 0 mm | 0.89 m/s, 229° | 0 W/m² | - |
| 1777959614 | 17.22° C | 75% | 998.6 hPa | 0 mm | 0.89 m/s, 166° | 0 W/m² | - |
| 1777959311 | 17.78° C | 75% | 998.4 hPa | 0 mm | 1.79 m/s, 200° | 0 W/m² | - |
| 1777959008 | 17.78° C | 73% | 998.4 hPa | 0 mm | 2.68 m/s, 222° | 0 W/m² | - |
| 1777958705 | 17.78° C | 75% | 998.4 hPa | 0 mm | 1.34 m/s, 28° | 0 W/m² | - |
* Rain latest hour (hover to see other rain measurements)
** Current wind speed in m/s (hover to see current wind gust speed)